Location: Gand�
(15.0971°N, 12.6564°W)
Time: 01:23:54
(UTC+00:00)

Daily predictions for brighter satellites

Satellite Brightness Start Highest point End
(mag) Time Altitude Azimuth Time Altitude Azimuth Time Altitude Azimuth
ATLAS 3B CENTAUR R/B 4.4 03:27:04 35° NW 03:29:08 37° NNW 03:35:37 10° NE
Atlas Centaur 2 3.2 03:49:49 60° NE 03:49:49 60° NE 03:56:22 10° ENE
SL-16 R/B 4.1 03:52:14 10° N 03:54:15 22° N 03:54:15 22° N
Cosmos 2263 Rocket 4.0 04:05:37 22° N 04:05:37 22° N 04:07:35 10° N
Delta 7925 Rocket 4.4 04:05:32 61° E 04:05:32 61° E 04:10:32 10° ENE
CZ-3A R/B 3.7 04:07:21 56° NNW 04:08:01 58° N 04:34:38 10° ENE
CZ-3A R/B 3.7 04:07:21 56° NNW 04:08:02 58° N 04:34:38 10° ENE
CZ-3A R/B 3.7 04:07:21 56° NNW 04:08:02 58° N 04:34:39 10° ENE
ATLAS 2A CENTAUR R/B 4.3 04:13:30 18° NE 04:13:30 18° NE 04:14:28 10° ENE
Cosmos 1125 Rocket 4.1 04:18:56 54° ENE 04:18:56 54° ENE 04:23:13 10° NNE
Cosmos 1844 Rocket 3.7 04:27:13 32° SE 04:28:57 41° ESE 04:34:09 10° NE
S3M 4.3 04:29:03 33° SSE 04:31:54 64° E 04:38:11 10° NNE
Cosmos 1726 Rocket 4.4 04:32:00 45° E 04:32:10 46° E 04:36:25 10° NNE
CZ-2C R/B 2.6 04:28:18 10° NNE 04:32:35 63° E 04:32:35 63° E
Ariane H10+ 4.1 04:32:34 40° SW 04:36:41 48° S 04:43:23 10° ESE
Meteor 2-21 Rocket 4.4 04:35:14 10° N 04:41:18 82° E 04:46:01 18° S
Hubble Space Telescope 1.4 04:43:41 55° ENE 04:43:41 55° ENE 04:46:58 10° ENE
Nadezhda 2 Rocket 4.3 04:45:12 10° N 04:51:19 73° W 04:54:34 29° S
Landsat 5 3.6 04:53:27 55° N 04:53:27 55° N 04:56:31 10° N
ALOS 3.9 04:51:08 10° NE 04:55:18 33° E 04:59:29 10° SSE
Meteor 2-14 Rocket 4.5 04:51:31 10° NNW 04:57:23 53° W 04:58:53 43° SW
Cosmos 2058 Rocket 3.6 04:54:48 24° SSE 04:57:23 57° E 05:01:47 10° NNE
PSLV R/B 4.5 04:55:04 10° N 04:58:06 35° NW 04:58:06 35° NW
Cosmos 1356 Rocket 3.3 05:00:26 71° SW 05:00:44 75° W 05:04:57 10° N
ATLAS CENTAUR R/B 3.0 05:02:35 23° NW 05:02:35 23° NW 05:04:56 10° N
ERS-2 2.2 05:02:32 63° NNW 05:02:32 63° NNW 05:05:39 10° NNW
Cosmos 1943 4.5 04:59:14 10° N 05:04:30 41° ENE 05:09:45 10° SE
Cosmos 2228 3.7 05:06:14 36° NW 05:06:14 36° NW 05:09:30 10° NNW
deb Chang Zheng 4 3.6 05:01:51 10° N 05:06:06 57° WNW 05:06:32 54° WSW
ASTRO F (AKARI) 4.4 05:06:04 10° NNE 05:09:08 66° ESE 05:09:33 56° SSE
Meteor 1-21 Rocket 4.4 05:04:38 10° NNW 05:09:52 46° W 05:12:02 31° SW
GPS 2-18 Rocket1 4.4 05:11:47 25° NW 05:12:59 31° N 05:16:16 10° ENE
Cosmos 1758 Rocket 3.4 05:14:04 10° N 05:18:21 67° W 05:22:39 10° S
H-2A R/B 2.7 05:19:27 31° WNW 05:19:27 31° WNW 05:22:28 10° NW
GPS 2-15 Rocket1 3.4 05:20:47 23° WNW 05:23:50 71° N 05:28:46 10° E
Cosmos 1844 3.7 05:20:51 21° SSW 05:24:48 66° WNW 05:30:33 10° N
CZ-3B R/B 3.6 05:07:08 10° WNW 05:25:10 64° SSW 05:30:28 10° SE
Meteosat 1 Rocket2 3.2 05:24:55 28° W 05:27:26 64° NNW 05:31:20 10° ENE
CZ-4B R/B 1.8 05:24:13 10° SSE 05:27:35 64° E 05:30:53 10° N
CZ-4B R/B 3.4 05:28:50 10° NNE 05:33:16 67° ESE 05:37:34 10° S
ARIANE 44LP R/B 3.4 05:36:20 14° S 05:36:20 14° S 05:37:31 10° SSE
ATLAS 2A CENTAUR R/B 2.5 05:35:08 11° NW 05:37:46 50° NNE 05:46:08 10° ESE
NOSS 2-2 (D) 4.2 05:37:04 23° W 05:38:18 28° WNW 05:41:26 10° N
Atlas Centaur 2 3.9 05:32:25 14° WNW 05:38:33 38° NNW 05:46:19 10° NE
Cosmos 1825 Rocket 3.8 05:36:48 10° NNW 05:40:51 42° W 05:44:56 10° SSW
FENGYUN 3A 3.6 05:36:13 10° N 05:41:32 64° WNW 05:46:49 10° SSW
USA 267 3.8 05:37:16 10° SE 05:43:42 62° NE 05:50:07 10° NNW
SAR-Lupe-4 3.5 05:40:18 10° S 05:43:49 64° WSW 05:47:21 10° NNW
Meteor 2-10 Rocket 4.4 05:39:31 10° S 05:44:21 50° E 05:49:16 10° NNE
Cosmos 1953 Rocket 3.6 05:42:39 10° NNW 05:47:03 62° W 05:51:26 10° S
Cosmos 2278 Rocket 3.7 05:45:31 10° S 05:50:43 38° ESE 05:55:55 10° NE
Cosmos 1300 4.3 05:51:06 15° WSW 05:52:11 17° W 05:54:43 10° NW
ATLAS 3B CENTAUR R/B 3.4 05:47:00 10° NW 05:52:51 28° N 05:56:00 10° ENE
Cosmos 1455 3.1 05:49:18 10° S 05:53:00 51° E 05:56:44 10° NNE
Meteor PRIRODA 3.6 05:53:00 10° N 05:56:42 69° WNW 06:00:24 10° SSW
Spot 2 4.4 05:55:49 10° N 06:00:48 69° WNW 06:05:33 10° SSW
Meteor 2-1 Rocket 4.3 06:02:59 10° SSW 06:08:40 71° W 06:14:28 10° N
Meteor 1-31 Rocket 4.4 06:09:02 10° NW 06:11:31 17° WNW 06:13:59 10° WSW
Cosmos 1844 Rocket 4.4 06:09:45 10° WSW 06:12:46 15° WNW 06:15:46 10° NW
Cosmos 1400 Rocket 2.8 06:11:58 10° S 06:15:58 85° W 06:19:54 10° N
Chandra Rocket (1) 2.4 06:10:51 10° WSW 06:19:17 73° NNW 06:22:25 10° ENE
